Regional Weather Roundup
Issued by NWS

Home | Current Version | Previous Version | Graphics & Text | Print | Product List | Glossary On
Versions: 1 2 3 4 5 6 7 8 9 10 11 12 13 14 15 16 17 18 19 20 21 22 23 24 25 26 27 28 29 30 31 32 33 34 35 36 37 38 39 40 41 42 43 44 45 46 47 48 49 50
000
ASUS43 KDMX 291403
RWRIA

WEATHER ROUNDUP FOR IOWA
NATIONAL WEATHER SERVICE DES MOINES IA
900 AM CDT SUN MAY 29 2016

NOTE: "FAIR" INDICATES FEW OR NO CLOUDS BELOW 12,000 FEET WITH NO
SIGNIFICANT WEATHER AND/OR OBSTRUCTIONS TO VISIBILITY.

* - THESE STATIONS ARE NOT NWS STATIONS...THUS NOT UNDER NWS
QUALITY CONTROL.  THEY ALSO DO NOT REPORT WEATHER SUCH
AS PRECIPITATION OR FOG.

IAZ001>003-012>014-020>022-031>034-043>046-291500-
   NORTHWEST IOWA

CITY           SKY/WX    TMP DP  RH WIND       PRES   REMARKS
CARROLL *      SUNNY     66  61  82 W10       30.06R
CHEROKEE *     MOSUNNY   63  63 100 SW6       30.06R
DENISON *      SUNNY     63  59  88 SW7       30.06R
LE MARS *      SUNNY     64  61  88 SW6       30.07R
ORANGE CITY *  SUNNY     64  61  88 W6        30.05S
SHELDON *      SUNNY     66  61  82 W9        30.03S
SIOUX CITY     SUNNY     67  60  78 SW8       30.07R
SPENCER        SUNNY     67  60  78 W10       30.04R
STORM LAKE *   SUNNY     63  61  94 W13       30.06R
$$

IAZ055>058-069>071-079>083-090>094-291500-
   SOUTHWEST IOWA

CITY           SKY/WX    TMP DP  RH WIND       PRES   REMARKS
ATLANTIC *     MOSUNNY   63  59  88 W5        30.09R
AUDUBON *      SUNNY     64  61  88 W6        30.09R
CLARINDA *       N/A     68  59  73 MISG      30.11R
COUNCIL BLFS * SUNNY     64  59  82 CALM      30.10R
CRESTON *      SUNNY     66  59  77 VRB6      30.11R
HARLAN  *      MOSUNNY   63  59  88 SW5       30.12R
LAMONI         SUNNY     68  61  78 NW7       30.09R
RED OAK *      MOSUNNY   66  59  77 CALM      30.10R
SHENANDOAH *   SUNNY     68  64  88 CALM      30.10R
$$

IAZ047>049-059>061-072>074-084-291500-
   CENTRAL IOWA

CITY           SKY/WX    TMP DP  RH WIND       PRES   REMARKS
AMES           SUNNY     66  61  84 W8        30.05R
ANKENY *       SUNNY     68  61  77 SW5       30.06R
BOONE *        SUNNY     64  61  88 W7        30.05R
CHARITON *     SUNNY     64  59  82 W7        30.09R
DES MOINES     MOSUNNY   67  58  72 W7        30.07R
GRINNELL*      SUNNY     66  59  77 SW9       30.07R
KNOXVILLE *    SUNNY     66  59  77 W9        30.07R
MARSHALLTOWN   SUNNY     67  61  81 W10       30.05R
NEWTON *       SUNNY     66  63  88 W9        30.06R
PELLA *        SUNNY     66  59  77 W6        30.09
PERRY *          N/A     66  63  88 W8        30.07R
$$

IAZ004>006-015-016-023>025-035-036-291500-
   NORTH CENTRAL IOWA

CITY           SKY/WX    TMP DP  RH WIND       PRES   REMARKS
ALGONA *       SUNNY     64  61  88 W15       30.03R
CLARION *      SUNNY     66  61  82 W14       30.03R
ESTHERVILLE    SUNNY     65  61  87 W15       30.02R
FORT DODGE *   CLOUDY    66  57  72 W7        30.05R
MASON CITY     SUNNY     66  60  81 W15       30.02R
FOREST CITY *  SUNNY     64  59  82 W8        30.01R
WEBSTER CITY * SUNNY     66  63  88 W14       30.03R
IOWA FALLS *     N/A     66  61  82 W12       30.05R
$$

IAZ007>011-017>019-026>030-037>042-050>054-066-291500-
   NORTHEAST IOWA

CITY           SKY/WX    TMP DP  RH WIND       PRES   REMARKS
CEDAR RAPIDS   PTSUNNY   67  63  87 W15       30.04R
CHARLES CITY * MOSUNNY   66  63  88 W13G20    30.01R
CLINTON *      CLOUDY    67  62  84 W16       30.02R
DECORAH *      MOSUNNY   66  61  82 VRB7G14   29.97R
DUBUQUE        MOSUNNY   67  61  81 W13       30.01R
MONTICELLO *   MOSUNNY   68  61  77 W14       30.01R
OELWEIN *      MOSUNNY   66  63  88 W14       30.02R
WATERLOO       SUNNY     68  60  75 W13       30.01R
$$

IAZ064-065-067-068-078-291500-
   EAST CENTRAL IOWA

CITY           SKY/WX    TMP DP  RH WIND       PRES   REMARKS
DAVENPORT      PTSUNNY   67  61  81 W14       30.04R
IOWA CITY      MOSUNNY   69  61  75 W14       30.06R
MT. PLEASANT * SUNNY     72  63  73 W8        30.07R
MUSCATINE *    MOSUNNY   70  61  73 W9        30.05R
QUAD CITIES    CLOUDY    69  59  70 W13       30.03R
$$

IAZ062-063-075>077-085>089-095>099-291500-
   SOUTHEAST IOWA

CITY           SKY/WX    TMP DP  RH WIND       PRES   REMARKS
BURLINGTON     SUNNY     69  61  75 VRB6      30.06R
FAIRFIELD *      N/A    N/A N/A N/A MISG        N/A
FORT MADISON * SUNNY     70  61  73 W8        30.08R
KEOKUK *       SUNNY     70  59  68 W10       30.07R
OSKALOOSA *      N/A     67  59  76 NW9       30.08R
OTTUMWA        SUNNY     66  59  78 W8        30.07R
WASHINGTON *   SUNNY     68 -40   1 W13       30.08R
$$

ABBREVIATIONS USED IN REMARKS
   TC - TEMPERATURES IN CELSIUS
  WCI - WIND CHILL INDEX
   HX - HEAT INDEX
  VSB - VISIBILITY
$$





USA.gov is the U.S. government's official web portal to all federal, state and local government web resources and services.